Temp
80 84 82 84 84 84 84 84 83 83 83 83 83 83 83 83 83 83 83 83 83 83 83 83 83 83 83 83 83 83 83 83 83 83 83 82 82 82 82 82 82 89 82
85 86 82 83 84 84 83 84 83 83 83 83 83 84 84 83 83 83 83 83 83 83 83 83 83 83 83 83 83 83 83 83 83 82 83 83 83 82 82 82 82 86 82
86 86 85 83 84 84 83 83 83 84 84 83 84 84 84 83 83 83 83 83 83 83 83 83 83 83 83 83 83 83 84 83 84 84 83 89 90 83 82 82 82 82 82
88 86 86 82 83 83 83 83 84 84 84 84 84 84 84 83 83 83 83 83 83 83 83 83 83 83 84 84 84 84 84 83 84 84 89 90 89 85 83 83 82 82 82
88 87 85 82 83 83 83 84 84 84 84 84 84 84 84 83 84 83 83 83 83 83 83 83 83 83 84 84 84 84 84 84 85 87 88 87 87 87 83 83 83 82 83
88 86 84 83 83 84 84 84 84 84 84 84 84 84 84 84 83 83 83 83 83 83 83 83 83 84 84 84 84 85 85 85 86 90 88 88 87 83 81 82 81 82 81
87 82 83 83 83 83 84 84 84 84 84 84 84 84 84 83 83 83 83 83 83 84 84 84 84 84 84 84 85 85 85 85 89 89 85 81 87 81 82 81 79 78 79
87 83 81 83 84 84 84 84 84 84 84 84 84 84 83 83 83 83 83 84 84 84 85 85 84 84 85 85 85 85 85 85 90 88 84 87 81 81 83 80 80 80 77
87 86 80 82 85 84 84 84 84 84 84 84 84 83 83 83 83 83 83 83 84 85 85 85 85 85 85 85 85 84 85 85 89 90 86 82 81 82 83 79 78 75 78
83 87 80 79 76 82 83 84 84 84 84 84 84 83 83 83 82 83 83 83 84 85 85 86 85 85 85 85 84 85 85 86 90 90 88 84 80 82 84 79 78 78 80
83 83 87 80 76 79 82 81 83 84 85 84 85 83 84 88 87 87 84 83 84 84 85 85 84 84 84 85 84 84 85 92 86 87 81 79 81 83 84 81 81 82 81
81 83 83 83 80 76 82 80 77 85 84 87 85 84 86 86 87 87 85 82 83 83 84 83 83 85 88 94 94 88 83 83 81 83 91 81 82 84 84 83 82 82 82
83 82 81 79 79 79 74 75 75 75 81 87 84 84 85 87 88 91 92 91 90 88 93 92 92 93 92 92 90 90 90 90 92 92 88 81 81 84 84 83 83 84 84
80 81 84 83 78 76 76 73 71 73 76 87 86 84 85 88 89 88 90 89 90 91 90 90 92 90 90 89 87 90 91 90 92 93 90 81 81 82 84 84 84 83 83
79 79 83 83 80 77 75 74 70 72 81 87 87 86 87 88 87 89 89 90 89 91 90 90 89 89 89 89 90 89 89 89 91 92 91 81 82 82 83 84 84 83 83
82 80 82 82 83 81 75 74 71 78 80 82 84 87 85 88 87 89 88 89 88 88 90 89 87 87 88 89 88 88 88 89 89 89 91 88 82 82 82 83 83 83 83
83 83 81 82 83 82 79 79 80 78 80 73 75 81 85 86 86 86 88 88 88 87 87 88 88 88 89 90 85 86 87 87 88 87 89 90 89 82 82 82 81 82 82
83 80 82 81 83 83 82 80 82 79 83 83 74 81 84 85 84 86 89 88 87 86 87 88 87 87 87 86 86 85 85 87 86 86 87 87 87 87 82 80 81 81 82
82 80 80 81 81 82 81 81 81 82 82 80 74 77 82 85 85 87 88 87 86 87 87 87 86 86 86 86 86 85 85 84 85 86 84 85 84 86 85 78 79 80 81
83 81 81 81 80 80 81 80 81 80 81 79 75 76 82 84 85 86 88 86 86 86 86 85 83 86 85 85 87 84 83 84 85 84 85 86 84 85 84 83 85 82 79
81 80 80 78 78 80 77 78 78 79 81 79 81 75 75 80 83 84 87 86 86 84 83 83 85 81 82 85 85 83 81 82 80 82 85 85 83 83 84 83 83 84 81
81 80 79 79 78 78 80 80 81 79 80 82 79 77 80 80 82 83 82 84 84 85 82 82 81 79 80 85 83 83 74 77 80 82 83 82 83 81 77 80 82 80 82
82 80 79 79 78 79 79 80 76 76 75 77 81 78 78 79 77 80 82 83 82 83 84 82 82 81 78 82 81 82 79 74 72 76 79 78 74 74 76 80 79 79 80
84 83 81 80 79 79 78 78 76 76 78 81 81 82 80 77 76 80 82 81 81 83 81 82 84 82 81 78 83 83 82 82 74 69 74 78 76 75 76 83 83 81 81
84 83 82 79 78 79 78 78 75 72 78 81 82 80 80 79 76 78 80 80 80 82 81 80 81 82 84 82 82 82 81 82 82 80 69 68 78 76 77 82 82 82 81
85 83 82 78 77 78 78 78 76 73 74 78 79 80 82 83 82 76 78 79 78 81 81 81 82 82 83 82 84 82 82 83 80 80 77 71 76 76 74 82 82 81 81
MSLP
1015.99 1015.86 1015.86 1015.91 1016.10 1016.33 1016.55 1016.83 1017.06 1017.30 1017.43 1017.58 1017.72 1017.88 1018.00 1018.07 1018.14 1018.22 1018.24 1018.27 1018.22 1018.17 1018.08 1018.07 1018.11 1018.09 1018.03 1017.96 1017.91 1017.90 1017.97 1017.89 1017.85 1017.90 1017.87 1017.85 1017.86 1017.82 1017.82 1017.86 1017.85 1017.22 1017.84
1015.67 1016.04 1016.21 1016.29 1016.42 1016.61 1016.77 1017.09 1017.37 1017.60 1017.82 1017.88 1017.97 1018.02 1018.19 1018.30 1018.42 1018.47 1018.50 1018.51 1018.50 1018.49 1018.44 1018.44 1018.33 1018.20 1018.16 1018.05 1017.91 1017.83 1017.80 1017.82 1017.86 1017.82 1017.82 1017.84 1017.79 1017.85 1017.94 1018.04 1018.08 1017.77 1018.09
1015.76 1016.16 1016.43 1016.60 1016.76 1016.99 1017.21 1017.40 1017.62 1017.81 1017.99 1018.21 1018.24 1018.24 1018.38 1018.53 1018.64 1018.73 1018.81 1018.75 1018.77 1018.71 1018.67 1018.55 1018.45 1018.34 1018.23 1018.13 1017.99 1017.92 1017.84 1017.79 1017.69 1017.62 1017.67 1017.41 1017.30 1017.78 1017.91 1018.13 1018.16 1018.26 1018.27
1015.77 1016.28 1016.53 1016.85 1017.05 1017.32 1017.64 1017.77 1017.93 1018.16 1018.37 1018.52 1018.50 1018.67 1018.76 1018.75 1018.83 1018.92 1019.01 1018.97 1018.96 1018.97 1018.89 1018.77 1018.66 1018.41 1018.24 1018.18 1018.03 1017.91 1017.84 1017.75 1017.68 1017.68 1017.40 1017.29 1017.20 1017.46 1017.63 1017.76 1017.95 1018.07 1018.11
1015.91 1016.47 1016.75 1016.97 1017.23 1017.51 1017.86 1018.00 1018.16 1018.33 1018.63 1018.75 1018.79 1018.95 1019.04 1019.05 1019.00 1019.09 1019.14 1019.18 1019.18 1019.03 1019.04 1018.88 1018.69 1018.45 1018.36 1018.18 1017.91 1017.79 1017.71 1017.66 1017.64 1017.44 1017.36 1017.43 1017.40 1017.16 1017.46 1017.61 1017.73 1017.79 1017.99
1015.97 1016.56 1017.04 1017.21 1017.41 1017.66 1017.92 1018.20 1018.36 1018.44 1018.80 1018.97 1019.12 1019.24 1019.33 1019.37 1019.31 1019.37 1019.31 1019.33 1019.24 1019.15 1019.12 1018.99 1018.79 1018.51 1018.41 1018.13 1017.97 1017.84 1017.66 1017.51 1017.39 1017.14 1017.02 1017.03 1017.09 1017.18 1017.25 1017.29 1017.50 1017.68 1017.91
1016.17 1016.80 1017.16 1017.47 1017.62 1017.88 1018.09 1018.39 1018.62 1018.86 1019.08 1019.17 1019.31 1019.47 1019.51 1019.62 1019.65 1019.56 1019.57 1019.47 1019.37 1019.24 1019.21 1019.09 1018.86 1018.69 1018.49 1018.19 1017.89 1017.66 1017.54 1017.42 1017.06 1016.85 1016.99 1016.89 1016.91 1017.15 1017.10 1017.41 1017.67 1017.86 1018.15
1016.28 1017.01 1017.38 1017.70 1017.82 1018.05 1018.35 1018.54 1018.75 1018.94 1019.22 1019.37 1019.49 1019.66 1019.74 1019.76 1019.83 1019.71 1019.56 1019.48 1019.40 1019.27 1019.17 1019.01 1018.87 1018.66 1018.36 1018.14 1017.84 1017.58 1017.35 1017.17 1016.73 1016.83 1016.85 1016.85 1017.05 1017.02 1016.82 1017.25 1017.60 1017.68 1018.20
1016.35 1016.96 1017.46 1017.74 1018.04 1018.23 1018.44 1018.71 1018.91 1019.13 1019.31 1019.52 1019.59 1019.72 1019.86 1019.88 1019.90 1019.72 1019.53 1019.41 1019.32 1019.27 1019.11 1018.87 1018.70 1018.46 1018.23 1017.96 1017.61 1017.32 1017.12 1016.89 1016.65 1016.54 1016.79 1016.88 1016.96 1016.94 1016.86 1017.15 1017.60 1017.17 1018.06
1016.82 1016.88 1017.60 1018.06 1017.73 1018.38 1018.65 1018.82 1019.06 1019.30 1019.49 1019.55 1019.73 1019.80 1019.88 1019.89 1019.88 1019.79 1019.54 1019.41 1019.30 1019.15 1018.92 1018.78 1018.60 1018.36 1017.94 1017.64 1017.37 1017.14 1017.07 1016.88 1016.55 1016.46 1016.69 1016.96 1017.02 1016.78 1016.84 1017.04 1017.28 1017.50 1017.49
1016.94 1017.13 1017.33 1018.04 1018.49 1018.63 1018.92 1018.99 1019.11 1019.34 1019.46 1019.65 1019.77 1019.87 1019.85 1019.70 1019.65 1019.54 1019.54 1019.38 1019.09 1018.91 1018.76 1018.63 1018.42 1018.17 1017.82 1017.54 1017.40 1017.21 1017.01 1016.67 1016.67 1016.50 1016.74 1016.89 1016.79 1016.68 1016.59 1016.81 1016.88 1016.89 1017.01
1016.80 1017.16 1017.49 1017.87 1018.42 1018.82 1018.98 1019.31 1019.54 1019.34 1019.48 1019.69 1019.96 1020.02 1019.88 1019.78 1019.64 1019.52 1019.41 1019.32 1019.04 1018.92 1018.71 1018.60 1018.39 1018.05 1017.61 1017.15 1017.03 1017.24 1017.52 1017.33 1017.19 1016.92 1016.65 1017.02 1016.79 1016.69 1016.59 1016.68 1016.69 1016.75 1016.70
1016.71 1017.34 1017.76 1018.11 1018.39 1018.83 1019.42 1019.61 1019.77 1019.91 1019.58 1019.72 1020.01 1020.15 1020.03 1019.66 1019.40 1019.15 1018.95 1018.94 1018.74 1018.64 1018.24 1018.14 1017.95 1017.77 1017.63 1017.40 1017.41 1017.34 1017.23 1017.02 1016.81 1016.74 1016.88 1017.18 1016.96 1016.92 1016.88 1016.75 1016.62 1016.49 1016.38
1016.81 1017.26 1017.51 1017.81 1018.27 1019.03 1019.34 1019.71 1020.04 1020.27 1019.92 1019.61 1019.81 1020.05 1019.96 1019.52 1019.25 1019.22 1018.97 1019.02 1018.82 1018.60 1018.47 1018.37 1018.11 1018.09 1017.86 1017.79 1017.79 1017.47 1017.25 1017.32 1017.05 1016.80 1016.83 1017.34 1017.13 1016.97 1017.00 1016.79 1016.62 1016.48 1016.47
1016.86 1017.34 1017.58 1017.73 1018.28 1019.00 1019.40 1019.85 1020.26 1020.27 1019.97 1019.62 1019.72 1019.91 1019.82 1019.47 1019.28 1019.15 1019.04 1018.94 1018.92 1018.85 1018.70 1018.47 1018.36 1018.18 1017.92 1017.82 1017.66 1017.66 1017.60 1017.54 1017.27 1017.00 1017.17 1017.52 1017.49 1017.43 1017.29 1017.06 1016.96 1016.96 1016.93
1016.65 1017.19 1017.50 1017.98 1018.25 1018.69 1019.24 1019.65 1019.93 1020.20 1020.13 1019.96 1019.91 1019.84 1019.89 1019.63 1019.39 1019.12 1019.08 1019.03 1019.12 1019.09 1018.96 1018.82 1018.68 1018.35 1018.05 1017.80 1017.87 1017.94 1017.91 1017.71 1017.63 1017.50 1017.48 1017.77 1017.93 1017.82 1017.76 1017.71 1017.66 1017.58 1017.57
1016.18 1016.91 1017.41 1017.75 1018.02 1018.55 1019.08 1019.20 1019.51 1019.93 1020.05 1020.19 1020.26 1020.05 1019.84 1019.71 1019.56 1019.42 1019.16 1019.15 1019.26 1019.28 1019.15 1018.89 1018.64 1018.34 1017.95 1017.85 1018.32 1018.28 1018.26 1018.19 1018.08 1018.06 1017.85 1017.80 1017.89 1018.49 1018.50 1018.49 1018.40 1018.30 1018.12
1015.85 1016.56 1017.22 1017.73 1017.95 1018.24 1018.71 1019.12 1019.21 1019.56 1019.64 1019.79 1020.23 1019.88 1019.77 1019.78 1019.74 1019.62 1019.31 1019.38 1019.56 1019.44 1019.17 1018.87 1018.75 1018.42 1018.31 1018.43 1018.54 1018.67 1018.57 1018.53 1018.57 1018.54 1018.54 1018.54 1018.67 1018.82 1019.10 1019.24 1019.13 1018.91 1018.65
1015.72 1016.34 1016.94 1017.50 1017.86 1018.22 1018.69 1019.05 1019.17 1019.26 1019.48 1019.83 1019.94 1019.73 1019.82 1019.75 1019.66 1019.64 1019.48 1019.59 1019.71 1019.51 1019.23 1019.08 1018.91 1018.79 1018.63 1018.69 1018.83 1019.04 1019.03 1019.06 1018.99 1019.19 1019.27 1019.30 1019.38 1019.43 1019.58 1020.03 1019.88 1019.59 1019.33
1015.34 1016.02 1016.59 1017.08 1017.66 1018.15 1018.48 1019.07 1019.12 1019.26 1019.39 1019.64 1019.83 1019.54 1019.67 1019.72 1019.69 1019.67 1019.54 1019.69 1019.71 1019.56 1019.38 1019.33 1019.29 1019.08 1019.13 1019.11 1019.10 1019.39 1019.48 1019.47 1019.48 1019.62 1019.63 1019.71 1019.95 1019.96 1020.07 1020.16 1019.93 1020.21 1020.13
1014.93 1015.57 1016.23 1016.78 1017.30 1017.73 1018.25 1018.67 1018.96 1018.88 1019.23 1019.54 1019.36 1019.66 1019.74 1019.69 1019.64 1019.64 1019.46 1019.54 1019.72 1019.72 1019.70 1019.67 1019.46 1019.30 1019.34 1019.43 1019.28 1019.58 1019.84 1020.03 1020.21 1020.12 1020.11 1020.23 1020.44 1020.53 1020.57 1020.67 1020.60 1020.56 1020.63
1014.11 1014.86 1015.61 1016.16 1016.93 1017.40 1017.70 1018.20 1018.55 1018.82 1018.87 1018.96 1019.35 1019.56 1019.48 1019.59 1019.59 1019.60 1019.59 1019.49 1019.71 1019.72 1019.75 1019.80 1019.74 1019.37 1019.30 1019.36 1019.16 1019.29 1019.49 1020.25 1020.60 1020.67 1020.56 1020.81 1020.81 1021.19 1021.44 1021.48 1021.30 1021.45 1021.19
1013.33 1014.01 1014.90 1015.49 1016.22 1016.94 1017.38 1017.98 1018.61 1018.85 1019.05 1019.12 1019.14 1019.41 1019.30 1019.44 1019.59 1019.55 1019.47 1019.45 1019.70 1019.65 1019.58 1019.84 1019.66 1019.57 1019.37 1019.46 1019.51 1019.33 1019.10 1019.50 1020.73 1021.31 1021.35 1021.59 1021.86 1022.09 1021.97 1021.99 1021.96 1022.05 1021.84
1012.26 1013.35 1014.34 1015.11 1015.77 1016.42 1017.13 1017.56 1017.80 1018.04 1018.06 1018.16 1018.59 1018.97 1019.06 1019.17 1019.32 1019.25 1019.27 1019.40 1019.66 1019.56 1019.58 1019.70 1019.55 1019.55 1019.49 1019.28 1019.44 1019.66 1019.70 1019.51 1019.88 1021.08 1021.77 1021.98 1022.34 1022.27 1022.33 1021.80 1022.05 1022.31 1022.27
1012.00 1012.65 1013.53 1014.60 1015.16 1015.73 1016.43 1016.92 1017.46 1017.80 1017.74 1017.91 1018.20 1018.56 1018.72 1018.77 1019.04 1018.99 1019.10 1019.24 1019.46 1019.38 1019.35 1019.56 1019.53 1019.45 1019.48 1019.41 1019.30 1019.41 1019.57 1019.66 1019.72 1019.89 1021.15 1022.21 1022.28 1022.54 1022.52 1022.17 1022.38 1022.50 1022.82
1011.51 1012.42 1013.08 1013.90 1014.78 1015.36 1015.89 1016.44 1016.98 1017.37 1017.54 1017.74 1017.81 1017.92 1018.01 1018.16 1018.29 1018.56 1018.74 1018.95 1019.18 1019.03 1019.19 1019.23 1019.34 1019.32 1019.41 1019.48 1019.41 1019.51 1019.33 1019.15 1019.26 1019.44 1020.12 1021.30 1021.47 1022.37 1022.81 1022.45 1022.68 1022.98 1023.12
Wind_Speed
7 11 13 16 16 16 16 17 16 16 16 17 16 16 15 13 11 10 9 9 8 8 8 9 10 10 9 9 8 8 7 5 4 4 3 4 3 2 3 3 2 4 5
14 12 14 15 16 16 17 16 16 16 16 16 16 15 14 12 10 8 7 6 6 7 9 10 9 8 8 8 7 6 6 6 3 1 1 2 1 2 3 1 2 4 1
14 13 14 15 16 16 16 17 16 16 16 15 15 14 13 11 9 6 6 5 6 7 8 7 8 8 8 7 7 7 7 6 4 2 1 4 3 4 5 5 4 4 3
14 12 14 14 15 16 16 16 16 16 15 14 13 12 11 10 7 5 4 4 6 7 7 9 9 7 6 6 6 5 5 5 6 5 3 4 5 4 8 8 6 8 6
14 12 13 15 16 16 16 15 14 14 14 12 11 11 9 7 6 5 4 5 6 6 7 8 6 5 5 5 4 5 6 8 7 5 5 4 5 6 9 8 4 8 8
14 12 13 16 17 17 15 15 14 14 12 10 9 8 6 4 4 4 4 6 5 6 7 7 6 6 5 6 7 7 7 7 6 4 5 3 5 6 10 8 4 7 6
13 10 12 15 16 15 15 14 13 11 11 10 8 6 4 3 2 3 5 5 6 6 7 7 8 8 9 9 10 9 9 9 7 5 3 1 7 6 6 5 7 7 6
13 11 9 14 15 15 15 14 12 12 10 8 6 4 2 2 3 3 4 4 5 5 6 7 8 9 10 11 12 11 11 10 8 6 3 4 6 9 6 7 8 5 5
12 12 9 10 13 15 14 13 12 10 9 6 5 3 2 3 4 3 3 4 4 6 7 8 9 10 10 11 13 12 11 10 9 4 4 3 4 10 4 12 6 2 6
11 12 9 7 3 8 9 13 11 9 6 6 3 3 3 4 5 5 6 3 6 7 8 9 11 10 10 10 12 12 11 8 7 6 4 2 5 6 3 7 8 13 8
9 11 12 9 4 5 8 7 10 9 6 4 2 5 2 3 3 4 5 7 7 8 9 10 11 10 9 7 9 13 11 6 7 6 3 7 7 5 3 5 7 8 5
12 12 10 11 9 5 5 6 4 3 4 3 4 3 1 2 3 6 5 7 7 9 6 7 7 5 4 6 5 6 5 7 5 4 6 7 10 9 7 8 7 4 4
14 9 10 9 9 10 5 4 3 2 1 1 2 3 3 3 3 3 2 3 4 5 5 5 6 6 9 7 6 6 6 5 4 4 9 11 9 11 12 10 8 7 7
13 13 12 10 8 8 6 4 3 3 1 2 1 2 3 3 3 3 3 3 3 4 5 6 5 7 8 7 5 8 8 5 5 4 8 13 10 14 15 14 12 12 14
14 13 12 11 11 9 9 7 4 5 3 3 2 2 3 3 2 2 3 4 4 4 5 5 6 7 7 7 5 6 7 7 8 5 6 13 13 15 17 17 16 17 18
14 13 13 12 10 11 9 10 8 7 6 3 2 1 3 2 2 2 3 4 4 4 4 5 6 6 5 5 6 6 6 6 7 8 8 12 20 20 20 20 19 19 20
13 13 13 13 13 12 12 11 9 6 5 2 2 2 1 1 2 2 3 3 4 4 5 4 6 5 6 5 7 7 5 7 9 10 9 8 11 21 22 21 20 19 19
13 14 13 11 13 13 11 9 8 6 5 5 3 2 3 2 2 2 2 3 3 4 4 5 6 5 6 6 6 7 6 7 10 11 11 9 10 9 16 22 20 19 20
14 14 14 13 13 13 10 7 7 8 5 5 3 3 3 2 3 1 2 3 3 3 4 5 6 5 6 5 7 7 8 8 9 10 12 12 12 11 9 16 20 19 20
14 14 14 13 13 13 8 6 5 5 4 3 3 3 4 2 2 2 2 2 3 3 4 6 6 5 5 5 7 8 9 9 8 9 10 10 11 12 11 10 8 13 20
14 14 15 14 14 12 9 9 7 8 6 5 6 4 4 3 3 1 1 0 2 4 5 6 5 4 3 2 3 7 9 10 10 8 8 9 11 11 11 10 7 7 8
16 16 16 16 14 13 10 10 7 7 6 6 5 5 7 6 5 4 3 2 2 3 4 5 6 3 2 3 1 1 3 5 7 8 8 8 10 9 10 10 11 10 9
17 18 17 16 16 13 12 9 5 4 2 6 7 7 7 7 4 5 5 3 1 2 3 4 5 6 3 2 3 2 2 3 4 4 9 8 8 6 6 10 11 11 11
18 16 16 15 15 13 14 12 13 9 10 8 8 7 6 5 5 6 7 5 4 3 2 3 3 4 3 2 2 2 1 3 3 3 5 7 5 7 7 8 10 11 11
16 16 15 15 15 15 15 13 10 8 8 5 7 9 8 6 6 5 7 7 5 5 3 4 5 3 1 2 1 2 2 3 1 3 4 4 6 5 6 7 8 9 11
14 14 15 16 15 15 15 15 15 13 10 8 7 7 7 6 6 7 8 7 6 6 5 5 5 3 2 2 1 1 2 2 4 3 5 5 6 6 5 6 7 8 8
Wind_Direction
143 138 130 128 126 123 127 132 130 127 124 122 126 123 121 117 113 104 95 85 77 68 59 52 47 47 52 48 44 41 41 45 62 82 93 112 107 92 74 76 118 129 114
143 138 131 132 129 126 129 129 129 128 128 129 128 131 128 122 117 108 94 77 59 46 41 44 44 39 38 37 40 32 25 28 50 62 113 162 186 216 241 193 137 71 133
140 140 134 132 128 127 129 132 131 131 133 130 131 132 130 124 117 104 83 57 48 39 41 38 29 22 24 30 29 22 13 9 10 5 309 287 284 233 245 231 209 199 204
140 142 142 134 130 129 130 130 130 132 132 133 135 131 128 129 123 103 77 58 36 33 22 13 21 16 20 26 16 7 348 349 343 341 310 305 291 230 247 257 274 214 202
143 148 145 139 134 135 135 133 135 137 137 138 136 131 131 132 126 101 68 41 35 16 8 359 7 2 3 356 332 325 323 329 334 320 344 346 310 284 249 240 243 189 204
146 149 146 142 141 141 141 138 140 141 139 141 136 133 133 134 117 80 58 44 17 1 0 348 342 331 328 311 314 315 310 310 315 342 314 317 307 329 271 234 294 263 223
150 145 148 145 142 138 134 135 137 138 137 140 140 137 126 91 50 59 46 30 7 360 357 342 328 324 322 317 315 313 310 312 302 304 293 321 303 319 300 183 221 231 276
147 144 140 143 137 135 139 141 143 144 141 146 140 124 95 50 7 28 34 21 10 357 351 336 326 319 312 314 309 304 299 297 301 291 306 287 295 297 318 142 254 269 40
149 150 145 143 149 150 145 147 147 146 144 143 137 110 45 27 0 349 5 7 357 350 340 326 327 324 317 303 295 298 307 314 309 310 293 291 323 296 348 149 191 333 193
156 156 137 131 143 149 143 145 143 142 144 148 122 92 32 25 15 351 330 11 349 341 329 326 323 321 310 317 323 327 334 324 338 334 22 34 345 331 69 144 210 225 224
157 153 152 150 153 148 143 154 146 146 159 137 114 49 61 1 360 339 345 325 338 339 335 336 336 333 328 308 329 347 347 19 351 34 42 3 329 0 30 213 251 246 258
161 154 154 159 163 130 139 116 60 138 103 67 30 357 16 343 324 318 317 317 329 334 351 353 353 343 333 355 14 27 20 358 25 23 62 30 39 36 50 45 25 15 331
166 157 170 158 165 139 137 113 76 23 64 123 40 336 316 317 321 335 4 2 358 15 27 29 18 15 360 4 15 10 11 9 36 35 42 27 29 57 43 34 29 22 24
176 172 173 164 140 133 116 107 59 306 45 225 118 287 304 308 333 358 22 38 15 27 33 24 10 360 356 12 29 8 26 21 11 23 52 28 30 51 45 45 47 56 53
181 179 178 167 150 142 130 129 143 257 246 215 194 217 300 309 6 35 62 65 44 48 21 19 4 360 359 15 18 34 35 47 25 34 50 37 62 56 54 54 56 63 65
188 181 182 179 168 153 154 158 173 215 222 220 214 227 302 316 336 59 80 72 69 45 18 13 1 351 0 8 43 36 52 34 36 47 64 64 60 57 55 57 61 63 66
192 183 187 182 174 172 167 172 179 188 192 174 204 254 40 355 49 50 73 69 60 44 18 11 1 5 16 38 52 60 58 46 54 61 61 61 71 58 53 56 58 61 65
191 189 186 187 188 183 175 173 170 187 176 169 185 198 83 70 48 72 78 66 40 36 21 12 9 19 33 45 49 53 59 59 70 67 63 59 62 58 61 53 54 59 63
192 189 190 191 193 191 184 182 177 171 181 186 186 149 118 72 106 103 84 68 10 28 19 13 17 28 44 63 67 64 65 67 64 68 67 66 64 63 68 62 53 50 54
190 190 191 190 193 193 187 195 195 190 190 194 206 179 183 156 97 196 124 48 0 8 11 12 5 53 57 67 71 71 67 65 65 68 70 71 67 71 70 62 61 62 51
187 187 191 190 193 187 188 198 211 209 199 208 213 200 204 201 209 222 220 329 6 4 5 6 353 37 87 90 130 93 78 69 67 73 69 71 73 69 67 65 55 53 62
188 188 188 191 190 194 197 201 214 201 213 212 209 213 213 206 216 232 249 260 24 338 358 9 5 341 98 58 86 191 147 100 70 63 69 73 69 66 65 58 66 59 53
192 190 192 187 185 190 194 187 176 175 163 202 211 215 215 206 208 226 241 251 232 287 341 351 345 347 350 95 34 339 202 102 103 55 73 76 73 76 79 76 66 63 59
197 188 189 186 185 187 186 196 201 208 208 211 215 216 213 197 207 228 246 241 235 259 296 315 326 329 284 24 142 89 27 90 150 141 73 83 79 82 78 81 74 67 68
191 189 185 187 186 185 186 198 195 197 220 209 212 212 224 198 208 227 238 235 230 244 249 273 289 307 263 305 357 151 146 121 119 144 134 133 98 85 75 79 77 75 70
184 188 182 182 190 187 191 196 199 203 202 214 217 214 214 211 196 215 241 233 220 239 250 258 263 257 223 201 216 185 211 189 173 167 133 155 125 91 89 87 80 80 78